Tracking 28125 objects as of 3-Oct-2023
HD Live streaming from Space Station
objects crossing your sky now

COSMOS 256

Track COSMOS 256 now!
10-day predictions
COSMOS 256 is classified as:


NORAD ID: 3576
Int'l Code: 1968-106A
Perigee: 1,178.3 km
Apogee: 1,229.6 km
Inclination: 74.0 °
Period: 109.4 minutes
Semi major axis: 7574 km
RCS: 3.2431 m2 (large)
Launch date: November 30, 1968
Source: Commonwealth of Independent States (former USSR) (CIS)
Launch site: PLESETSK MISSILE AND SPACE COMPLEX (PKMTR)
Your satellite tracking list
Your tracking list is empty




NASA's NSSDC Master Catalog

Two Line Element Set (TLE):
1 03576U 68106A   23275.90890384  .00000298  00000-0  82518-3 0  9998
2 03576  74.0474 132.5153 0033899 333.0889  38.5794 13.16836602635607
Source of the keplerian elements: AFSPC